Location: Rockford
(42.2710°N, 89.0940°W)
Time: 12:21:28
(UTC-05:00)

SPOT 5 - Visible Passes

Search period start: 29 March 2015 00:00
Search period end: 08 April 2015 00:00
Orbit: 824 x 826 km, 98.5° (Epoch: 29 March)

Date Brightness Start Highest point End Pass type
(mag) Time Alt. Az. Time Alt. Az. Time Alt. Az.
29 Mar 4.9 20:07:59 11° E 20:10:14 14° ENE 20:13:06 10° NNE visible
29 Mar 3.0 21:49:26 77° S 21:49:49 85° WSW 21:55:14 10° NNW visible
29 Mar 5.9 23:30:53 10° W 23:30:58 10° W 23:31:33 10° WNW visible
30 Mar 3.1 21:29:44 58° ESE 21:30:28 66° ENE 21:35:50 10° N visible
30 Mar 5.4 23:11:10 16° W 23:11:16 16° W 23:14:27 10° NW visible
31 Mar 3.5 21:10:01 39° ESE 21:11:11 45° ENE 21:16:18 10° N visible
31 Mar 4.9 22:51:28 24° W 22:51:38 24° W 22:55:54 10° NW visible
01 Apr 4.0 20:50:19 26° E 20:51:56 31° ENE 20:56:39 10° N visible
01 Apr 4.3 22:31:46 35° WSW 22:32:05 36° W 22:37:00 10° NNW visible
02 Apr 4.5 20:30:36 17° E 20:32:44 22° ENE 20:36:49 10° NNE visible
02 Apr 3.6 22:12:03 51° WSW 22:12:37 53° W 22:17:53 10° NNW visible
03 Apr 4.8 20:10:54 11° E 20:13:35 15° ENE 20:16:42 10° NNE visible
03 Apr 3.1 21:52:21 63° S 21:53:12 79° WSW 21:58:37 10° NNW visible
04 Apr 5.1 19:53:48 10° ENE 19:54:29 10° ENE 19:55:29 10° NE visible
04 Apr 3.0 21:32:38 52° SE 21:33:51 71° ENE 21:39:14 10° N visible
04 Apr 5.5 23:14:06 15° W 23:14:43 15° W 23:17:35 10° NW visible
05 Apr 3.4 21:12:57 37° ESE 21:14:33 48° ENE 21:19:44 10° N visible
05 Apr 5.0 22:54:23 22° WSW 22:55:04 22° W 22:59:10 10° NW visible
06 Apr 3.9 20:53:13 25° ESE 20:55:17 33° ENE 21:00:06 10° N visible
06 Apr 4.4 22:34:41 32° WSW 22:35:30 33° W 22:40:18 10° NNW visible
07 Apr 4.4 20:33:31 16° E 20:36:04 23° ENE 20:40:18 10° NNE visible
07 Apr 3.8 22:14:58 43° SW 22:16:00 49° W 22:21:13 10° NNW visible
